Time,TemperatureF,DewpointF,PressureIn,WindDirection,WindDirectionDegrees,WindSpeedMPH,WindSpeedGustMPH,Humidity,HourlyPrecipIn,Conditions,Clouds,dailyrainin,SolarRadiationWatts/m^2,SoftwareType,DateUTC
2013-09-16 00:02:00,91.0,43.0,-100.00,ENE,66,2.0,6.0,19,0.00,,,0.00,0.000000,,2013-09-16 07:02:00,
2013-09-16 05:52:00,83.0,46.0,-100.00,South,183,0.0,4.0,27,0.00,,,0.00,0.000000,,2013-09-16 12:52:00,
2013-09-16 06:02:00,83.0,46.0,-100.00,South,183,0.0,4.0,27,0.00,,,0.00,0.000000,,2013-09-16 13:02:00,
2013-09-16 06:42:00,80.0,46.0,-100.00,East,90,0.0,2.0,30,0.00,,,0.00,0.000000,,2013-09-16 13:42:00,
2013-09-16 06:52:00,80.0,46.0,-100.00,East,90,0.0,2.0,30,0.00,,,0.00,0.000000,,2013-09-16 13:52:00,
2013-09-16 07:02:00,80.0,46.0,-100.00,East,90,0.0,2.0,30,0.00,,,0.00,0.000000,,2013-09-16 14:02:00,
2013-09-16 07:42:00,81.0,47.0,-100.00,NE,52,3.0,6.0,30,0.00,,,0.00,0.000000,,2013-09-16 14:42:00,
2013-09-16 07:52:00,81.0,47.0,-100.00,NE,52,3.0,6.0,30,0.00,,,0.00,0.000000,,2013-09-16 14:52:00,
2013-09-16 08:02:00,81.0,47.0,-100.00,NE,52,3.0,6.0,30,0.00,,,0.00,0.000000,,2013-09-16 15:02:00,
2013-09-16 08:43:00,86.0,48.0,-100.00,WSW,247,3.0,10.0,27,0.00,,,0.00,14.000000,,2013-09-16 15:43:00,
2013-09-16 08:53:00,86.0,48.0,-100.00,WSW,247,3.0,10.0,27,0.00,,,0.00,14.000000,,2013-09-16 15:53:00,
2013-09-16 09:03:00,86.0,48.0,-100.00,WSW,247,3.0,10.0,27,0.00,,,0.00,14.000000,,2013-09-16 16:03:00,
2013-09-16 12:42:00,106.0,43.0,-100.00,NE,53,6.0,11.0,12,0.00,,,0.00,64.000000,,2013-09-16 19:42:00,
2013-09-16 13:43:00,108.0,40.0,-100.00,ENE,73,7.0,14.0,10,0.00,,,0.00,330.000000,,2013-09-16 20:43:00,
2013-09-16 13:52:00,108.0,40.0,-100.00,ENE,73,7.0,14.0,10,0.00,,,0.00,330.000000,,2013-09-16 20:52:00,
2013-09-16 14:02:00,108.0,40.0,-100.00,ENE,73,7.0,14.0,10,0.00,,,0.00,330.000000,,2013-09-16 21:02:00,
2013-09-16 14:44:00,113.0,34.0,-100.00,SE,130,3.0,9.0,7,0.00,,,0.00,1128.000000,,2013-09-16 21:44:00,
2013-09-16 14:56:00,113.0,34.0,-100.00,SE,130,3.0,9.0,7,0.00,,,0.00,1128.000000,,2013-09-16 21:56:00,
2013-09-16 15:04:00,113.0,34.0,-100.00,SE,130,3.0,9.0,7,0.00,,,0.00,1128.000000,,2013-09-16 22:04:00,
2013-09-16 16:43:00,114.0,35.0,-100.00,NNE,30,4.0,15.0,7,-99.99,,,0.00,949.000000,,2013-09-16 23:43:00,
2013-09-16 18:52:00,109.0,35.0,-100.00,South,173,4.0,11.0,8,0.00,,,0.00,500.000000,,2013-09-17 01:52:00,
2013-09-16 19:03:00,109.0,35.0,-100.00,South,173,4.0,11.0,8,0.00,,,0.00,500.000000,,2013-09-17 02:03:00,
2013-09-16 23:52:00,90.0,42.0,-100.00,NE,40,0.0,2.0,19,0.00,,,0.00,0.000000,,2013-09-17 06:52:00,